Regional Weather Roundup
Issued by NWS

Home | Current Version | Previous Version | Graphics & Text | Print | Product List | Glossary Off
Versions: 1 2 3 4 5 6 7 8 9 10 11 12 13 14 15 16 17 18 19 20 21 22 23 24 25 26 27 28 29 30 31 32 33 34 35 36 37 38 39 40 41 42 43 44 45 46 47 48 49 50

000
ASUS43 KTOP 262308
RWRKS

WEATHER ROUNDUP FOR KANSAS
NATIONAL WEATHER SERVICE GOODLAND KS
500 PM CST WED NOV 26 2014

NOTE:  "FAIR" INDICATES FEW OR NO CLOUDS BELOW 12,000 FEET WITH NO
SIGNIFICANT WEATHER AND/OR OBSTRUCTIONS TO VISIBILITY.

KSZ001>006-013>018-027>032-041>047-270000-
NORTHWEST KANSAS

CITY           SKY/WX    TMP DP  RH WIND       PRES   REMARKS
GOODLAND       CLOUDY    35  25  66 N5        30.30R
HAYS           CLOUDY    39  18  41 N15       30.33R WCI  31
HILL CITY      CLOUDY    38  18  44 NW14      30.34R WCI  30
RUSSELL        CLOUDY    37  21  52 N14       30.32R WCI  28
$$

KSZ061>065-074>080-084>089-270000-
SOUTHWEST KANSAS

CITY           SKY/WX    TMP DP  RH WIND       PRES   REMARKS
DODGE CITY     CLEAR     40  16  37 N13       30.31R WCI  32
ELKHART          N/A     45  22  40 NE2         N/A
GARDEN CITY    CLEAR     39  19  44 N9        30.31R
GREAT BEND     CLOUDY    39  19  45 N15       30.33R WCI  31
LIBERAL        CLEAR     45  18  33 NE10      30.32R
PRATT          CLOUDY    39  21  48 N14       30.32R WCI  31
$$

KSZ066>073-081>083-090>101-270000-
SOUTHEAST KANSAS

CITY           SKY/WX    TMP DP  RH WIND       PRES   REMARKS
CHANUTE        PTCLDY    39  26  59 NW21G29   30.22R WCI  29
COFFEYVILLE    MOCLDY    44  26  49 NW21      30.23R
HUTCHINSON     CLOUDY    40  21  46 N16G25    30.30R WCI  31
MEDICINE LODGE   N/A     43  20  39 N16G26    30.30R
NEWTON         CLEAR     37  19  48 NW16G24   30.30R WCI  28
PARSONS        MOCLDY    42  27  55 NW15G25   30.23R
WICHITA INTL   MOCLDY    41  22  46 N23G29    30.30R
WICHITA JABRA  PTCLDY    39  23  52 NW18      30.29R WCI  30
WICHITA MCCONL PTCLDY    41  21  45 N20       30.29R
WINFIELD       MOCLDY    42  25  50 NW13      30.28R
$$

KSZ007>012-019>026-033>040-048>060-102>105-270000-
NORTHEAST KANSAS

CITY           SKY/WX    TMP DP  RH WIND       PRES   REMARKS
CONCORDIA      PTCLDY    33  21  61 N15       30.31R WCI  23
EMPORIA        PTCLDY    35  23  61 NW15G24   30.25R WCI  25
LAWRENCE       CLOUDY    33  24  69 NW24      30.22R WCI  20
MANHATTAN      PTCLDY    35  22  58 N8G20     30.29R
MARYSVILLE     MOCLDY    30  21  69 N16       30.28R WCI  19
OLATHE IND     CLOUDY    33  25  72 NW22G32   30.18R WCI  21
OLATHE EXE     CLOUDY    33  26  75 NW20G30   30.16R WCI  21
SALINA         PTCLDY    38  21  50 N16       30.32R WCI  29
TOPEKA BILLARD CLOUDY    35  23  61 NW17G35   30.25R WCI  25
TOPEKA FORBES  CLOUDY    35  24  64 NW22G32   30.22R WCI  23
$$


USA.gov is the U.S. government's official web portal to all federal, state and local government web resources and services.